Torna al catalogo

COSMOS 1363

AttivoNavigazioneLEO
NORAD 13166·PAYLOAD·🇷🇺 Russia

Lanciato May 6, 1982 da Plesetsk Cosmodrome

Loading…

Prossimi Passaggi (prossime 24 ore)

TLE

AggiornatoSource: Space-Track

Epoca: Sep 14, 2026, 22:30 UTC

1 13166U 82040G   26257.93782204 -.00000029  00000-0 -94720-4 0  9997
2 13166  74.0093  67.9529 0019895 300.0959 228.2722 12.44163277 14689

Traccia COSMOS 1363 in tempo reale con AllMySat

Download on the App Store